Regional Weather Roundup
Issued by NWS

Home | Current Version | Previous Version | Graphics & Text | Print | Product List | Glossary On
Versions: 1 2 3 4 5 6 7 8 9 10 11 12 13 14 15 16 17 18 19 20 21 22 23 24 25 26 27 28 29 30 31 32 33 34 35 36 37 38 39 40 41 42 43 44 45 46 47 48 49 50
000
ASUS43 KLMK 272202
RWRKY
KENTUCKY REGIONAL WEATHER ROUNDUP
NATIONAL WEATHER SERVICE LOUISVILLE KY
600 PM EDT MON APR 27 2015

NOTE "FAIR" INDICATES FEW OR NO CLOUDS BELOW 12,000 FEET
WITH NO SIGNIFICANT WEATHER AND/OR OBSTRUCTIONS TO VISIBILITY.

KYZ001>023-026-027-061>063-070>075-272300-
WESTERN AND SOUTH CENTRAL KENTUCKY

CITY           SKY/WX    TMP DP  RH WIND       PRES   REMARKS
PADUCAH        MOSUNNY   66  39  37 NE18      29.98F
HENDERSON      SUNNY     64  39  39 NE10      29.99S
OWENSBORO      MOSUNNY   65  39  38 NW13      29.99F
HOPKINSVILLE   SUNNY     64  37  37 N13       29.96F
BOWLING GREEN  SUNNY     66  37  34 N7        29.96S
GLASGOW        NOT AVBL
$$

KYZ024-025-028>034-038-045-046-053-272300-
NORTH CENTRAL KENTUCKY

CITY           SKY/WX    TMP DP  RH WIND       PRES   REMARKS
LOUISVILLE/SDF PTSUNNY   64  34  32 N10       29.96S
LOUISVILLE/LOU PTSUNNY   65  35  33 N7        29.97S
FORT KNOX      SUNNY     64  34  32 N12       29.95S
$$

KYZ035>037-039>044-047>052-055>060-089>105-272300-
NORTHEAST KENTUCKY

CITY           SKY/WX    TMP DP  RH WIND       PRES   REMARKS
LEXINGTON      CLOUDY    60  38  43 W9        29.96R
COVINGTON      CLOUDY    58  38  47 N13G21    29.98R
FRANKFORT      CLOUDY    62  34  35 N8        29.95S
$$

KYZ054-064>069-076>088-106>120-272300-
SOUTHEAST KENTUCKY

CITY           SKY/WX    TMP DP  RH WIND       PRES   REMARKS
JACKSON        CLOUDY    58  33  39 VRB5      29.95R
LONDON         MOSUNNY   63  31  30 NE10G20   29.94F
SOMERSET       NOT AVBL
MIDDLESBORO    SUNNY     63  33  33 N8        29.93S
MONTICELLO     MOCLDY    65  38  36 NE8       29.97F
$$




USA.gov is the U.S. government's official web portal to all federal, state and local government web resources and services.